Weather History for KDYB - August, 2014

Change the Weather History Date:

Monday, August 11, 2014

  Actual Average (KCHS) Record (KCHS)
Temperature  
Mean Temperature 81 °F 81 °F  
Max Temperature 89 °F 90 °F 98 °F (1968)
Min Temperature 73 °F 73 °F 58 °F (1944)
Degree Days  
Heating Degree Days 0 0  
Month to date heating degree days 0  
Since 1 June heating degree days 1  
Since 1 July heating degree days 0  
Cooling Degree Days 16 16  
Month to date cooling degree days 185  
Year to date cooling degree days 1497  
Since 1 June cooling degree days 1135  
Growing Degree Days 31 (Base 50)    
Moisture  
Dew Point 75 °F    
Average Humidity 90    
Maximum Humidity 100    
Minimum Humidity 62    
Precipitation  
Precipitation 0.00 in 0.22 in 7.88 in (1940)
Month to date precipitation 2.38  
Year to date precipitation 30.87  
Sea Level Pressure  
Sea Level Pressure 29.97 in    
Wind  
Wind Speed 1 mph (NE)    
Max Wind Speed 8 mph    
Max Gust Speed -    
Visibility 8 miles    
Events Thunderstorm    
T = Trace of Precipitation, MM = Missing Value Source: NWS Daily Summary

Daily Weather History Graph

Daily Weather History Graph

Search for Another Location

Airport or City:

Trip Planner

Search our weather history database for the weather conditions in past years. The results will help you decide how hot, cold, wet, or windy it might be!

Date:

Astronomy

Aug. 11, 2014 Rise Set
Actual Time 6:41 AM EDT 8:10 PM EDT
Civil Twilight 6:14 AM EDT 8:37 PM EDT
Nautical Twilight 5:43 AM EDT 9:08 PM EDT
Astronomical Twilight 5:10 AM EDT 9:41 PM EDT
Moon 8:45 PM EDT (8/11) 7:38 AM EDT (8/11)
Length of Visible Light 14h 22m
Length of Day
13h 29m
Full, 99% of the Moon is Illuminated
Aug 11
Full
Aug 17
Last Quarter
Aug 25
New
Sep 2
First Quarter
Sep 8
Full

Hourly Weather History & Observations

Time (EDT) Temp. Heat Index Dew Point Humidity Pressure Visibility Wind Dir Wind Speed Gust Speed Precip Events Conditions
12:35 AM 73.4 °F - 73.4 °F 100% 30.02 in 7.0 mi Calm Calm - N/A   Mostly Cloudy
1:15 AM 73.4 °F - 73.4 °F 100% 30.02 in 7.0 mi Calm Calm - N/A   Scattered Clouds
1:35 AM 73.4 °F - 73.4 °F 100% 30.02 in 5.0 mi Calm Calm - N/A   Mostly Cloudy
1:55 AM 73.4 °F - 73.4 °F 100% 30.02 in 5.0 mi Calm Calm - N/A   Mostly Cloudy
2:15 AM 73.4 °F - 73.4 °F 100% 30.01 in 5.0 mi NNE 3.5 mph - N/A   Overcast
2:35 AM 73.4 °F - 73.4 °F 100% 30.00 in 2.0 mi NNE 4.6 mph - N/A   Overcast
2:55 AM 73.4 °F - 73.4 °F 100% 30.00 in 1.0 mi Calm Calm - N/A   Overcast
3:15 AM 73.4 °F - 73.4 °F 100% 29.99 in 1.5 mi Calm Calm - N/A   Overcast
4:15 AM 73.4 °F - 73.4 °F 100% 29.98 in 7.0 mi Calm Calm - N/A   Overcast
4:35 AM 73.4 °F - 73.4 °F 100% 29.97 in 7.0 mi Calm Calm - N/A   Overcast
4:55 AM 73.4 °F - 73.4 °F 100% 29.98 in 7.0 mi Calm Calm - N/A   Overcast
5:15 AM 73.4 °F - 73.4 °F 100% 29.99 in 7.0 mi NE 3.5 mph - N/A   Overcast
5:35 AM 73.4 °F - 73.4 °F 100% 29.98 in 7.0 mi Calm Calm - N/A   Overcast
5:55 AM 73.4 °F - 73.4 °F 100% 29.98 in 7.0 mi Calm Calm - N/A   Overcast
6:15 AM 73.4 °F - 73.4 °F 100% 29.98 in 4.0 mi Calm Calm - N/A   Overcast
6:35 AM 73.4 °F - 73.4 °F 100% 29.98 in 3.0 mi Calm Calm - N/A   Overcast
7:15 AM 73.4 °F - 73.4 °F 100% 30.00 in 4.0 mi Calm Calm - N/A   Overcast
7:35 AM 73.4 °F - 73.4 °F 100% 30.00 in 4.0 mi Calm Calm - N/A   Overcast
7:55 AM 73.4 °F - 73.4 °F 100% 30.00 in 2.0 mi NNE 3.5 mph - N/A   Overcast
8:15 AM 75.2 °F - 75.2 °F 100% 30.01 in 2.5 mi North 3.5 mph - N/A   Overcast
8:55 AM 77.0 °F - 77.0 °F 100% 30.01 in 10.0 mi NNE 3.5 mph - N/A   Overcast
9:15 AM 77.0 °F - 77.0 °F 100% 30.02 in 10.0 mi NE 3.5 mph - N/A   Overcast
10:15 AM 80.6 °F 87.1 °F 77.0 °F 89% 30.01 in 10.0 mi Calm Calm - N/A   Mostly Cloudy
10:35 AM 82.4 °F 90.9 °F 77.0 °F 84% 30.01 in 10.0 mi East 3.5 mph - N/A   Scattered Clouds
11:15 AM 84.2 °F 92.3 °F 75.2 °F 74% 30.01 in 10.0 mi Calm Calm - N/A   Scattered Clouds
11:55 AM 86.0 °F 95.1 °F 75.2 °F 70% 30.01 in 10.0 mi Calm Calm - N/A   Scattered Clouds
12:15 PM 86.0 °F 93.4 °F 73.4 °F 66% 30.00 in 10.0 mi Calm Calm - N/A   Scattered Clouds
12:35 PM 86.0 °F 93.4 °F 73.4 °F 66% 30.00 in 10.0 mi East 4.6 mph - N/A   Overcast
12:55 PM 86.0 °F 95.1 °F 75.2 °F 70% 29.99 in 10.0 mi Calm Calm - N/A   Scattered Clouds
1:15 PM 87.8 °F 95.6 °F 73.4 °F 62% 29.99 in 10.0 mi Calm Calm - N/A   Clear
1:35 PM 86.0 °F 96.9 °F 77.0 °F 74% 29.98 in 10.0 mi North 8.1 mph - N/A   Scattered Clouds
1:55 PM 84.2 °F 94.1 °F 77.0 °F 79% 29.97 in 10.0 mi NNW 8.1 mph - N/A   Overcast
2:15 PM 86.0 °F 96.9 °F 77.0 °F 74% 29.96 in 10.0 mi North 5.8 mph - N/A   Mostly Cloudy
2:35 PM 87.8 °F 97.6 °F 75.2 °F 66% 29.96 in 10.0 mi NNW 4.6 mph - N/A   Clear
2:55 PM 87.8 °F 97.6 °F 75.2 °F 66% 29.95 in 10.0 mi NNE 4.6 mph - N/A   Clear
3:15 PM 87.8 °F 97.6 °F 75.2 °F 66% 29.94 in 10.0 mi NW 3.5 mph - N/A   Clear
3:35 PM 89.6 °F 99.8 °F 75.2 °F 62% 29.93 in 10.0 mi Calm Calm - N/A   Clear
5:15 PM 80.6 °F 87.1 °F 77.0 °F 89% 29.94 in 10.0 mi SE 5.8 mph - N/A Thunderstorm Overcast
5:35 PM 80.6 °F 87.1 °F 77.0 °F 89% 29.94 in 10.0 mi SE 4.6 mph - N/A Thunderstorm Overcast
5:55 PM 80.6 °F 87.1 °F 77.0 °F 89% 29.93 in 10.0 mi SE 5.8 mph - N/A   Light Drizzle
6:15 PM 80.6 °F 87.1 °F 77.0 °F 89% 29.93 in 10.0 mi SE 4.6 mph - N/A   Overcast
6:35 PM 80.6 °F 87.1 °F 77.0 °F 89% 29.93 in 10.0 mi ESE 4.6 mph - N/A   Mostly Cloudy
7:15 PM 80.6 °F 87.1 °F 77.0 °F 89% 29.92 in 10.0 mi East 3.5 mph - N/A   Mostly Cloudy
7:35 PM 80.6 °F 87.1 °F 77.0 °F 89% 29.93 in 10.0 mi SSE 3.5 mph - N/A   Scattered Clouds
7:55 PM 78.8 °F - 77.0 °F 94% 29.93 in 10.0 mi Calm Calm - N/A   Mostly Cloudy
8:35 PM 78.8 °F - 77.0 °F 94% 29.93 in 10.0 mi SE 3.5 mph - N/A   Overcast
9:15 PM 77.0 °F - 77.0 °F 100% 29.93 in 10.0 mi Calm Calm - N/A   Clear
9:35 PM 77.0 °F - 77.0 °F 100% 29.94 in 10.0 mi Calm Calm - N/A   Clear
9:55 PM 77.0 °F - 77.0 °F 100% 29.94 in 10.0 mi Calm Calm - N/A   Clear
10:35 PM 77.0 °F - 77.0 °F 100% 29.94 in 10.0 mi Calm Calm - N/A   Clear
11:15 PM 77.0 °F - 77.0 °F 100% 29.94 in 10.0 mi Calm Calm - N/A   Clear
11:35 PM 75.2 °F - 75.2 °F 100% 29.93 in 7.0 mi Calm Calm - N/A   Clear
11:55 PM 75.2 °F - 75.2 °F 100% 29.94 in 7.0 mi Calm Calm - N/A   Clear